Content
SEND FEEDBACK

Daily
Averages
Monthly
Summary
United States of America

GREENFIELD, MASSACHUSETTS


Home > North America > United States > Massachusetts
Elevation: 58 meters     Latitude: 42 37N     Longitude: 072 33W

WEATHER
 
SELECT A DAY
Number of Records: 217,680;   Date Range: 7/1/96 - 12/19/14
 
SHARE

PRINT THIS DATA

[ ← Previous Day ]
WEATHER ALMANAC - 29 APRIL, 2014
[ Next Day → ]
[ °F ]   °C
Weather ElementAverageHighLow
Temperature6 °C8.3 °C (1:34 am)3.9 °C (11:00 pm)
Dewpoint1.4 °C4 °C (2:48 am)-0.6 °C (2:52 pm)
Humidity73.2 %82 % (2:41 am)56 % (1:52 pm)
Barometer1029.1 hPa1033.2 hPa (8:52 pm)1023.4 hPa (1:34 am)
Wind Speed13.5 km/h24.1 km/h (1:52 pm)
Wind Gust33.3 km/h (1:31 pm)
Weather ElementAverage
Visibility15.8 km
Wind DirectionE (84.8 °)

Weather ElementTotal
Precipitation---
Heating Degree Days12.3 (Base 18.3)
Averaged from 25 records on 29 April, 2014
WEATHER CONDITIONS BREAKOUT
WIND DIRECTION BREAKOUT
WEATHER BY HOUR - 29 APRIL, 2014
[ °F ]   °C
Local TimeTemperatureDewpointHumidityBarometerVisibilityWind DirectionWind SpeedGust SpeedPrecipitationEventsConditions
1:34 AM8.3 °C3.9 °C74 %1023.4 hPa16.1 kmENE (60°)14.8 km/hOvercast
1:52 AM7.8 °C3.9 °C76 %1023.7 hPa12.9 kmENE (70°)14.8 km/hOvercast
2:41 AM6.7 °C3.9 °C82 %1024 hPa16.1 kmEast (90°)13 km/h27.8 km/h0 mmOvercast
2:48 AM7 °C4 °C81 %1024.4 hPa16.1 kmENE (70°)9.3 km/h0 mmOvercast
2:52 AM6.7 °C3.9 °C82 %1024.7 hPa16.1 kmEast (80°)7.4 km/h0 mmOvercast
3:29 AM6.1 °C3.3 °C82 %1025.1 hPa14.5 kmEast (80°)18.5 km/h29.6 km/h0 mmRainLight Rain
3:52 AM5.6 °C2.8 °C82 %1025.7 hPa16.1 kmEast (80°)9.3 km/h0 mmOvercast
4:52 AM5.6 °C2.2 °C79 %1026.8 hPa16.1 kmEast (80°)9.3 km/hOvercast
5:52 AM5 °C1.7 °C79 %1026.8 hPa16.1 kmEast (80°)16.7 km/h27.8 km/hOvercast
7:52 AM5 °C1.7 °C79 %1028.8 hPa16.1 kmENE (60°)16.7 km/h29.6 km/hOvercast
9:52 AM5.6 °C0.6 °C70 %1030.8 hPa14.5 kmENE (70°)14.8 km/h0 mmRainLight Rain
11:52 AM7.2 °C0.6 °C63 %1030.8 hPa16.1 kmESE (110°)14.8 km/h31.5 km/hOvercast
12:52 PM7.2 °C0 °C60 %1031.2 hPa16.1 kmENE (70°)14.8 km/hOvercast
1:31 PM7.8 °C0 °C58 %1030.5 hPa16.1 kmEast (90°)16.7 km/h33.3 km/hOvercast
1:52 PM8.3 °C0 °C56 %1031.2 hPa16.1 kmEast (100°)24.1 km/hOvercast
2:52 PM7.2 °C-0.6 °C58 %1031.2 hPa16.1 kmEast (90°)22.2 km/h33.3 km/hOvercast
3:52 PM7.2 °C0 °C60 %1031.5 hPa16.1 kmEast (80°)22.2 km/h29.6 km/hOvercast
6:52 PM5.6 °C0.6 °C70 %1032.2 hPa16.1 kmEast (90°)11.1 km/hOvercast
7:52 PM4.4 °C0.6 °C77 %1032.8 hPa16.1 kmEast (90°)18.5 km/h0 mmRainLight Rain
8:14 PM4.4 °C0 °C73 %1032.2 hPa16.1 kmEast (90°)11.1 km/h0 mmRainLight Rain
8:52 PM4.4 °C0.6 °C77 %1033.2 hPa16.1 kmEast (100°)7.4 km/h0 mmRainLight Rain
9:29 PM4.4 °C0.6 °C77 %1032.2 hPa16.1 kmEast (100°)5.6 km/h0 mmRainLight Rain
9:52 PM4.4 °C0.6 °C77 %1032.8 hPa16.1 kmENE (70°)9.3 km/h0 mmRainLight Rain
11:00 PM3.9 °C0.6 °C79 %1032.5 hPa16.1 kmESE (120°)9.3 km/h0 mmRainLight Rain
11:52 PM3.9 °C0.6 °C79 %1033.2 hPa16.1 kmEast (100°)7.4 km/h0 mmOvercast
Hourly data recorded from KORE, located 0 kilometers away from Greenfield, Massachusetts







STORIES FROM OUR PARTNERS